Find TRYAD 1

NORAD ID: 66691 Int'l Des: NNA 2025-276 Owner: AUBU/UAH Country: US operational
LEOCIRCULARRETROGRADESSO

Current View

Loading 3D Globe...

About TRYAD 1

Description loading...

Upcoming Passes

Passes for default location (London). Set your location on the main map for personalized predictions.

Altitude History

Loading altitude history...

Two-Line Element Set

1 66691U 25276AB 26159.72386058 .00008678 00000-0 39652-3 0 9999
2 66691 97.4199 233.5465 0005272 45.3836 314.7829 15.20796171 29141
Epoch: Jun 8, 2026 • Age: 8 hours

Current Status

Altitude 513.9 km
Velocity 7.62 km/s
Sub-Earth Point 79.25°N, 90.99°W
Launch Date Nov 28, 2025
Age 0.5 years
Type other

Technical Details

Classification Payload
Mass 12.00 kg
Dry Mass 12.00 kg
Total Mass 12.00 kg
Length 0.30 m
Diameter 0.20 m
Span 0.30 m
Shape Box
Manufacturer AUBU
Bus Type Cubesat 6U
Phase Status In Orbit
Owner/State AUBU/UAH/US

Most Searched